Location: Stigler
(35.2540°N, 95.1230°W)
Time: 15:45:40
(UTC-06:00)

Daily predictions for brighter satellites

Satellite Brightness Start Highest point End
(mag) Time Altitude Azimuth Time Altitude Azimuth Time Altitude Azimuth
COSMOS 2406 3.4 17:29:19 10° NNW 17:34:56 54° ENE 17:40:32 10° SE
SL-8 Rocket 4.2 17:30:21 10° N 17:36:17 47° E 17:42:09 10° SSE
Cosmos 1378 Rocket 4.5 17:34:35 10° SSW 17:38:46 51° W 17:42:58 10° N
USA 32 4.2 17:36:26 10° SSE 17:41:29 54° E 17:46:35 10° NNE
IDEFIX/ARIANE 42P 2.6 17:36:27 10° SSE 17:41:33 58° ENE 17:46:38 10° N
Cosmos 2181 Rocket 4.2 17:38:45 10° S 17:45:04 84° W 17:51:30 10° N
Cosmos 1484 Rocket 3.9 17:42:51 10° ESE 17:45:42 21° ENE 17:48:32 10° NNE
Meteor 1-5 Rocket 4.1 17:40:18 10° N 17:45:43 67° E 17:51:15 10° SSE
Cosmos 2366 rocket 4.4 17:40:23 10° N 17:46:22 42° ENE 17:52:15 10° SSE
CZ-3B DEB 1.6 17:43:33 10° SW 17:46:31 88° NW 17:53:54 10° NE
OTV 4 0.4 17:43:34 10° WNW 17:46:34 73° N 17:49:34 10° E
Cosmos 2218 Rocket 4.2 17:42:09 10° N 17:48:14 50° E 17:54:12 10° SSE
SKYMED 2 4.3 17:48:23 10° NNE 17:52:18 32° E 17:56:12 10° SSE
USA 234 4.4 17:47:26 10° NNE 17:53:12 35° NNW 17:58:58 10° W
Cosmos 1455 Rocket 3.6 17:49:55 10° NNE 17:53:59 36° E 17:58:02 10° SE
Cosmos 2082 Rocket 3.9 17:56:01 10° NNE 17:57:43 11° NE 17:57:45 11° NE
NOSS 3-3 (A) 4.1 17:57:40 10° SSW 18:03:36 54° ESE 18:09:41 11° NE
NOSS 3-3 (C) 4.2 17:57:47 10° S 18:03:42 54° ESE 18:09:45 11° NE
BREEZE-M DEB (TANK) 3.3 17:57:53 10° NW 18:03:49 86° SW 18:07:25 10° SE
SL-8 R/B 3.7 18:00:34 10° SW 18:05:20 78° SE 18:09:02 17° ENE
Thor Agena Rocket 4.2 18:01:46 10° N 18:06:52 58° WNW 18:12:00 10° SSW
Cosmos 494 Rocket 4.4 18:03:14 10° N 18:08:11 41° ENE 18:13:07 10° SE
Okean 1 3.5 18:05:53 10° SSE 18:09:45 48° E 18:13:41 10° NNE
Hubble Space Telescope 3.2 18:10:04 10° WSW 18:12:58 18° SSW 18:15:52 10° SSE
Cosmos 1500 4.1 18:09:57 10° NNE 18:13:13 26° ENE 18:16:28 10° SE
ATLAS 2AS CENTAUR R/B 3.0 18:07:43 10° NNW 18:15:39 57° NE 18:22:58 10° SE
Meteor 1-28 Rocket 3.9 18:15:04 20° NE 18:17:04 32° E 18:20:29 10° SSE
Meteor 1-18 Rocket 4.2 18:13:53 10° S 18:19:28 89° E 18:25:12 10° N
ISS -1.1 18:17:23 10° WNW 18:19:48 19° NNW 18:21:48 12° N
SL-08 R/B 4.5 18:14:14 10° N 18:20:39 86° E 18:26:55 10° S
Cosmos 2251 Rocket 3.5 18:16:31 10° NNW 18:21:51 66° ENE 18:27:06 10° SSE
Cosmos 1812 3.3 18:26:20 10° SSW 18:30:08 57° W 18:33:57 10° N
SL-27 R/B 2.7 18:26:58 10° NNW 18:30:39 73° WSW 18:34:14 10° S
Cosmos 1346 Rocket 2.8 18:26:50 10° S 18:30:41 55° E 18:32:45 25° NNE
MSX 4.1 18:28:02 10° S 18:33:45 70° WSW 18:39:30 10° NNW
Tiangong 1 1.7 18:31:12 10° SW 18:34:01 38° SSE 18:34:09 38° SE
CZ-4 R/B 4.1 18:31:40 10° SSW 18:35:00 23° W 18:38:20 10° NW
OE (NEXTSAT) 4.3 18:33:15 10° SW 18:36:50 80° SE 18:37:38 51° ENE
Nadezhda 3 Rocket 3.9 18:33:09 10° S 18:39:13 64° E 18:45:23 10° NNE
DMSP B5D1-3 4.4 18:35:12 10° NNE 18:40:22 85° ESE 18:45:30 10° SSW
COSMO-SKYMED 1 2.9 18:36:04 10° N 18:40:23 65° WNW 18:44:40 10° SSW
Meteor 2-21 4.4 18:36:54 10° N 18:43:03 65° E 18:49:07 10° SSE
CZ-2C R/B 4.5 18:40:39 10° SSW 18:44:54 29° W 18:49:17 10° NW
GEOS 3 Rocket 3.5 18:40:11 10° SE 18:45:15 69° NE 18:50:21 10° NNW
SL-24 R/B - RUBIN 2 4.5 18:39:14 10° SSW 18:45:16 64° ESE 18:48:47 28° NE
Cosmos 1844 Rocket 4.5 18:41:15 10° WSW 18:46:00 28° WNW 18:50:49 10° N
Cosmos 1975 3.2 18:50:33 10° NNW 18:54:34 63° W 18:58:34 10° S
ATLAS 3B CENTAUR R/B 3.7 18:38:13 10° WSW 18:56:15 56° S 19:00:10 29° ESE
Cosmos 2297 3.6 18:51:43 10° SSW 18:57:19 71° ESE 18:59:27 39° NE
NOSS 2-1 (D) 4.2 18:58:13 10° SSW 19:00:46 36° SSE 19:00:46 36° SSE
NOSS 2-1 (C) 4.2 18:58:55 10° SSW 19:01:25 35° SSE 19:01:25 35° SSE
Meteor 2-14 Rocket 4.3 19:00:51 10° N 19:07:01 75° E 19:13:08 10° SSE
Meteor 1-19 Rocket 4.1 19:03:21 10° S 19:09:04 82° E 19:12:12 29° NNE
OAO 1 4.4 19:04:23 10° W 19:09:53 89° S 19:10:37 68° E
Cosmos 2278 Rocket 3.5 19:08:51 10° SW 19:14:02 37° WNW 19:18:28 14° N
OTV 4 3.4 19:20:16 10° W 19:21:18 17° WSW 19:21:18 17° WSW
Okean 1-7 Rocket 4.2 19:19:03 10° SSW 19:23:31 56° W 19:24:14 49° NW
FALCON 9 R/B 2.9 19:04:21 10° WSW 19:24:49 83° S 19:26:28 58° E
Cosmos 921 Rocket 3.8 19:22:08 10° SSW 19:25:22 48° SW 19:25:22 48° SW
Timation 1 Rocket 4.3 19:22:28 10° SSW 19:28:24 79° WNW 19:29:25 62° N
Meteor 2-16 Rocket 4.4 19:22:26 10° N 19:28:32 80° W 19:34:35 10° S
BREEZE M DEB (TANK) 4.0 19:26:43 10° WSW 19:32:37 31° NW 19:32:37 31° NW
Cosmos 2082 Rocket 3.5 19:36:55 10° NNW 19:39:41 30° NNW 19:39:41 30° NNW
Timation 2 Rocket 4.1 19:37:24 10° NNW 19:44:16 85° WSW 19:44:53 76° S
Cosmos 1833 Rocket 4.5 19:42:49 10° NNW 19:44:32 20° NNW 19:44:32 20° NNW
